Regional Weather Roundup
Issued by NWS

Home | Current Version | Previous Version | Text Only | Print | Product List | Glossary On
Versions: 1 2 3 4 5 6 7 8 9 10 11 12 13 14 15 16 17 18 19 20 21 22 23 24 25 26 27 28 29 30 31 32 33 34 35 36 37 38 39 40 41 42 43 44 45 46 47 48 49 50
000
ASUS43 KLSX 221307
RWRMO

WEATHER SUMMARY FOR MISSOURI
NATIONAL WEATHER SERVICE SPRINGFIELD MO
800 AM CDT SUN OCT 22 2017

NOTE: "FAIR" INDICATES FEW OR NO CLOUDS BELOW 12,000 FEET WITH NO
       SIGNIFICANT WEATHER AND/OR OBSTRUCTIONS TO VISIBILITY.
       CURRENT SKY AND/OR WEATHER CONDITIONS ARE NOT AVAILABLE FOR
       CHILLICOTHE AND FARMINGTON.

MOZ001>031-035>038-043-044-053-054-221400-
...NORTHERN AND WESTERN MISSOURI...

CITY           SKY/WX    TMP DP  RH WIND       PRES   REMARKS
KANSAS CTY INT MOCLDY    47  47 100 W6        30.07S
KANSAS C DTWN  CLOUDY    50  48  93 W5        30.08R
LEE`S SUMMIT   CLOUDY    49  48  97 NW10      30.07R
ST JOSEPH      PTCLDY    45  44  97 NW5       30.09R
CHILLICOTHE      N/A     50  49  96 VRB3      30.06R
KIRKSVILLE     CLOUDY    50  50 100 NW9       30.01R

$$
MOZ066>068-077>081-088>096-101>105-221400-
...SOUTHWEST MISSOURI...

CITY           SKY/WX    TMP DP  RH WIND       PRES   REMARKS
SPRINGFIELD    LGT RAIN  53  52  96 NW14G22   30.01R
JOPLIN         CLOUDY    52  52 100 NW7       30.07R
BRANSON        LGT RAIN  57  57 100 CALM      30.00R FOG

$$
MOZ032>034-039>042-045>050-055>058-069>072-221400-
...CENTRAL MISSOURI...

CITY           SKY/WX    TMP DP  RH WIND       PRES   REMARKS
COLUMBIA       LGT RAIN  54  53  97 NW12      29.99R
JEFFERSON CITY LGT RAIN  56  53  90 W10       29.99R
ROLLA          CLOUDY    57  57 100 NW5       29.96S
SEDALIA        LGT RAIN  52  52 100 NW13      30.04R
WHITEMAN AFB   RAIN      50  48  93 N9        30.00R
WARRENSBURG    CLOUDY    48  46  93 NW6       30.05R
OSAGE BEACH    LGT RAIN  54  53  97 NW7       29.99R

$$
MOZ051-052-059>065-221400-
...EAST CENTRAL MISSOURI...

CITY           SKY/WX    TMP DP  RH WIND       PRES   REMARKS
ST LOUIS INTL  LGT RAIN  63  63 100 W10       29.92R
SPIRIT OF STL  LGT RAIN  62  61  96 W6        29.91R
ST CHARLES     LGT RAIN  65  65 100 W12       29.89R

$$
MOZ072>076-082>087-097>100-106>115-221400-
...SOUTH CENTRAL AND SOUTHEAST MISSOURI...

CITY           SKY/WX    TMP DP  RH WIND       PRES   REMARKS
CAPE GIRARDEAU PTCLDY    67  62  84 SE17G26   29.97R
FARMINGTON     CLOUDY    62  60  93 NW5       29.96R
POPLAR BLUFF   CLOUDY    64  62  93 S7        29.95R
WEST PLAINS    CLOUDY    59  57  93 CALM      29.97S

$$


USA.gov is the U.S. government's official web portal to all federal, state and local government web resources and services.